API VERSION: 1.2 API SOURCE: NASA/JPL Horizons API ******************************************************************************* Ephemeris / API_USER Sun Jun 22 11:35:03 2025 Pasadena, USA / Horizons ******************************************************************************* Target body name: Moon (301) {source: DE441} Center body name: Voyager 1 (spacecraft) (-31) {source: VOYAGER_1_ST+REFIT2022_M} Center-site name: BODY CENTER ******************************************************************************* Start time : A.D. 1977-Sep-18 18:00:00.0000 TDB Stop time : A.D. 1977-Sep-18 20:00:00.0000 TDB Step-size : 10 minutes ******************************************************************************* Center geodetic : 0.0, 0.0, 0.0 {E-lon(deg),Lat(deg),Alt(km)} Center cylindric: 0.0, 0.0, 0.0 {E-lon(deg),Dxy(km),Dz(km)} Center radii : (undefined) Output units : KM-S Calendar mode : Mixed Julian/Gregorian Output type : GEOMETRIC cartesian states Output format : 6 (LT, range, and range-rate) Reference frame : Ecliptic of J2000.0 ******************************************************************************* JDTDB LT RG RR ******************************************************************************* $$SOE 2443405.250000000 = A.D. 1977-Sep-18 18:00:00.0000 TDB 3.994010995777553E+01 1.197374373703180E+07 1.011350861818591E+01 2443405.256944444 = A.D. 1977-Sep-18 18:10:00.0000 TDB 3.996034909825038E+01 1.197981127870256E+07 1.011163024530506E+01 2443405.263888889 = A.D. 1977-Sep-18 18:20:00.0000 TDB 3.998058447914605E+01 1.198587769327984E+07 1.010975164081706E+01 2443405.270833333 = A.D. 1977-Sep-18 18:30:00.0000 TDB 4.000081610000429E+01 1.199194298062626E+07 1.010787280990042E+01 2443405.277777778 = A.D. 1977-Sep-18 18:40:00.0000 TDB 4.002104396037701E+01 1.199800714060748E+07 1.010599375773446E+01 2443405.284722222 = A.D. 1977-Sep-18 18:50:00.0000 TDB 4.004126805982665E+01 1.200407017309232E+07 1.010411448949930E+01 2443405.291666667 = A.D. 1977-Sep-18 19:00:00.0000 TDB 4.006148839792596E+01 1.201013207795270E+07 1.010223501037593E+01 2443405.298611111 = A.D. 1977-Sep-18 19:10:00.0000 TDB 4.008170497425802E+01 1.201619285506364E+07 1.010035532554608E+01 2443405.305555556 = A.D. 1977-Sep-18 19:20:00.0000 TDB 4.010191778841635E+01 1.202225250430327E+07 1.009847544019224E+01 2443405.312500000 = A.D. 1977-Sep-18 19:30:00.0000 TDB 4.012212684000475E+01 1.202831102555279E+07 1.009659535949768E+01 2443405.319444444 = A.D. 1977-Sep-18 19:40:00.0000 TDB 4.014233212863758E+01 1.203436841869663E+07 1.009471508864639E+01 2443405.326388889 = A.D. 1977-Sep-18 19:50:00.0000 TDB 4.016253365393928E+01 1.204042468362218E+07 1.009283463282304E+01 2443405.333333333 = A.D. 1977-Sep-18 20:00:00.0000 TDB 4.018273141554500E+01 1.204647982022005E+07 1.009095399721302E+01 $$EOE ******************************************************************************* TIME Barycentric Dynamical Time ("TDB" or T_eph) output was requested. This continuous coordinate time is equivalent to the relativistic proper time of a clock at rest in a reference frame co-moving with the solar system barycenter but outside the system's gravity well. It is the independent variable in the solar system relativistic equations of motion. TDB runs at a uniform rate of one SI second per second and is independent of irregularities in Earth's rotation. CALENDAR SYSTEM Mixed calendar mode was active such that calendar dates after AD 1582-Oct-15 (if any) are in the modern Gregorian system. Dates prior to 1582-Oct-5 (if any) are in the Julian calendar system, which is automatically extended for dates prior to its adoption on 45-Jan-1 BC. The Julian calendar is useful for matching historical dates. The Gregorian calendar more accurately corresponds to the Earth's orbital motion and seasons. A "Gregorian-only" calendar mode is available if such physical events are the primary interest. REFERENCE FRAME AND COORDINATES Ecliptic at the standard reference epoch Reference epoch: J2000.0 X-Y plane: adopted Earth orbital plane at the reference epoch Note: IAU76 obliquity of 84381.448 arcseconds wrt ICRF X-Y plane X-axis : ICRF Z-axis : perpendicular to the X-Y plane in the directional (+ or -) sense of Earth's north pole at the reference epoch. Symbol meaning: JDTDB Julian Day Number, Barycentric Dynamical Time LT One-way down-leg Newtonian light-time (sec) RG Range; distance from coordinate center (km) RR Range-rate; radial velocity wrt coord. center (km/sec) ABERRATIONS AND CORRECTIONS Geometric state vectors have NO corrections or aberrations applied. Computations by ... Solar System Dynamics Group, Horizons On-Line Ephemeris System 4800 Oak Grove Drive, Jet Propulsion Laboratory Pasadena, CA 91109 USA General site: https://ssd.jpl.nasa.gov/ Mailing list: https://ssd.jpl.nasa.gov/email_list.html System news : https://ssd.jpl.nasa.gov/horizons/news.html User Guide : https://ssd.jpl.nasa.gov/horizons/manual.html Connect : browser https://ssd.jpl.nasa.gov/horizons/app.html#/x API https://ssd-api.jpl.nasa.gov/doc/horizons.html command-line telnet ssd.jpl.nasa.gov 6775 e-mail/batch https://ssd.jpl.nasa.gov/ftp/ssd/horizons_batch.txt scripts https://ssd.jpl.nasa.gov/ftp/ssd/SCRIPTS Author : Jon.D.Giorgini@jpl.nasa.gov *******************************************************************************